Location: Luxembourg
(49.6117°N, 6.1300°E)
Time: 11:47:50
(UTC+01:00)

OTV 5 (USA 277) - Pass Details

Date: 02 February 2019
Orbit: 342 x 346 km, 54.5° (Epoch: 17 February)

Event Time Altitude Azimuth Distance (km) Brightness Sun altitude
Exits shadow 05:58:36 36° 45° (NE) 570 ? -20.9°
Drops below altitude 10° 06:00:30 10° 59° (ENE) 1,298 ? -20.6°
Sets 06:02:31 0° 63° (ENE) 2,141 ? -20.3°
